[[{"header":{"parameterUnit":"m.s-1","parameterCategory":1,"la1":30.2991,"la2":30.254,"lo1":-89.0895,"lo2":-89.0444,"dy":0.0017,"dx":0.0017,"nx":28,"ny":28,"refTime":"2024-05-15T03:00:00:Z","depth":0,"parameterNumber":2,"parameterNumberName":"U-component_of_WINDS"},"data":[0,0,0,0,0,0,0,0,0,0,0,0,0,0,0,0,0,0,0,0,0,0,0,0,0,0,0,0,0,0,0,0,0,0,0,0,0,0,0,0,0,0,0,0,0,0,0,0,0,0,0,0,0,0,0,0,0,0,4.4734,4.4735,0,4.4905,4.4907,4.4909,4.4838,4.4834,4.483,4.4826,4.5006,4.5014,4.5023,0,0,0,0,0,0,0,0,0,0,0,0,0,4.4347,4.4355,4.4733,4.4736,4.4738,4.4905,4.4907,4.4909,4.4838,4.4833,4.4828,4.4824,4.5003,4.5013,4.5024,0,0,0,0,0,0,0,0,0,0,0,0,0,4.4517,4.4357,4.4733,4.4722,4.4723,4.4904,4.4907,4.491,4.484,4.4833,4.4827,4.4821,4.5,4.5012,4.5025,4.5229,0,0,4.5065,4.507,0,0,0,0,0,0,0,0,4.4507,4.4531,4.4722,4.4723,4.4725,4.4843,4.4837,4.5017,4.4841,4.4796,4.4826,4.4818,4.4957,4.4973,4.5019,4.5237,4.5245,4.5066,4.5074,4.5079,4.5083,0,0,0,0,0,0,0,4.4496,4.4523,4.4801,4.4725,4.4726,4.471,4.4727,4.4871,4.4909,4.4799,4.4794,4.4815,4.4957,4.5007,4.5023,4.5247,4.5066,4.5077,4.5085,4.509,4.5638,4.5645,0,0,0,0,0,0,4.4483,4.4514,4.4796,4.4807,4.4598,4.4722,4.4741,4.4812,4.4907,4.4916,4.482,4.4811,4.4988,4.5008,4.5029,4.5272,4.5079,4.5091,4.5099,4.5632,4.564,4.5647,0,0,0,0,0,0,4.4475,4.4509,4.4789,4.4659,4.4693,4.4735,4.4815,4.4818,4.4868,4.4923,4.493,4.4864,4.4984,4.5011,4.5179,4.5277,4.5097,4.5109,4.5624,4.5634,4.5643,4.576,0,0,0,0,0,0,4.4464,4.4507,4.4584,4.4661,4.4701,4.4935,4.4821,4.4826,4.489,4.488,4.4966,4.4975,4.4981,4.516,4.5191,4.5292,4.5119,4.5615,4.5628,4.564,4.5748,4.5773,4.5795,0,0,0,0,0,4.4451,4.4611,4.4588,4.4622,4.4798,4.4941,4.4964,4.4966,4.4898,4.4976,4.5011,4.4972,4.5261,4.5177,4.5213,4.5318,4.5609,4.5624,4.5639,4.5737,4.5768,4.5794,0,0,0,0,0,0,4.4547,4.4621,4.4596,4.4786,4.4858,4.4929,4.5028,4.4999,4.5093,4.508,4.508,4.51,4.5273,4.5313,4.5218,4.5519,4.5425,4.5448,4.5487,4.5517,4.554,4.5527,4.513,0,0,0,0,0,4.4589,4.4698,4.4758,4.492,4.4957,4.4986,4.5049,4.5044,4.5119,4.5149,4.5197,4.5272,4.5379,4.545,4.5552,4.5753,4.577,4.5843,4.5866,4.5885,4.5905,4.6012,4.6045,4.5697,4.5697,4.5697,0,0,4.468,4.4734,4.4803,4.4941,4.4995,4.5109,4.5012,4.5137,4.5221,4.5169,4.5329,4.5367,4.545,4.5635,4.5718,4.5673,4.6005,4.5905,4.5919,4.5929,4.6031,4.6064,4.6093,4.5708,4.5706,4.5704,0,0,4.4902,4.4954,4.5094,4.515,4.5233,4.5251,4.5285,4.536,4.5382,4.5543,4.5505,4.5606,4.5791,4.5852,4.5907,4.615,4.6116,4.6183,4.6306,4.6411,4.6438,4.6462,4.6548,4.6579,4.6203,4.6203,4.6203,0,4.5004,4.5172,4.517,4.5297,4.5358,4.5313,4.5455,4.551,4.5623,4.5667,4.5613,4.5844,4.5897,4.6094,4.6153,4.62,4.6238,4.6173,4.6434,4.6458,4.6481,4.6563,4.6595,4.6211,4.621,4.6209,4.6208,0,4.5293,4.5411,4.5514,4.5621,4.5694,4.5828,4.5846,4.592,4.5909,4.5933,4.6096,4.6158,4.6271,4.6318,4.631,4.6514,4.6483,4.6432,4.6337,4.6522,4.6598,4.6629,4.6221,4.6219,4.6216,4.6215,0,0,4.5582,4.5684,4.5722,4.577,4.5857,4.5948,4.608,4.6188,4.6251,4.6331,4.6441,4.6597,4.655,4.6613,4.6611,4.6703,4.6889,4.6641,4.6642,4.6684,4.7117,4.7153,4.719,4.6867,4.6873,4.6878,4.7109,0,4.581,4.6039,4.6039,4.625,4.6358,4.6316,4.643,4.6497,4.6522,4.6618,4.6646,4.6757,4.6687,4.6724,4.6813,4.6848,4.6976,4.6831,4.697,4.6975,4.695,4.723,4.727,4.7485,4.7139,4.7144,4.7148,0,4.6107,4.6193,4.6414,4.6484,4.6529,4.6632,4.673,4.6822,4.6896,4.6908,4.6977,4.696,4.7094,4.6995,4.7179,4.708,4.7137,4.7163,4.7171,4.7184,4.7072,4.725,4.7554,4.7586,4.7195,4.7192,4.7188,0,4.6294,4.6466,4.6619,4.6661,4.6747,4.682,4.6859,4.6927,4.6991,4.7078,4.7119,4.7221,4.7277,4.7356,4.7367,4.7294,4.7552,4.7454,4.7566,4.7566,4.7622,4.7618,4.7939,4.766,4.766,4.7659,4.7658,0,4.6548,4.6685,4.6704,4.6799,4.695,4.695,4.71,4.7134,4.7194,4.7295,4.7265,4.7361,4.7369,4.7468,4.7478,4.7628,4.7654,4.7667,4.7668,4.767,4.7668,4.7707,4.7692,4.7668,4.7666,4.7664,4.7663,0,4.6783,4.6801,4.6966,4.7032,4.7052,4.7161,4.7218,4.7309,4.733,4.7458,4.7488,4.7522,4.7636,4.7654,4.779,4.7796,4.7975,4.7962,4.795,4.7948,4.8058,4.8047,4.8414,4.8462,4.8153,4.8156,4.8158,0,4.6944,4.7047,4.7124,4.7188,4.7231,4.7335,4.74,4.7403,4.7472,4.7563,4.7642,4.7753,4.7841,4.8025,4.8063,4.8165,4.8153,4.8275,4.8168,4.8166,4.8154,4.8147,4.8157,4.8295,4.8298,4.8301,4.8303,0,4.7227,4.723,4.7323,4.742,4.7498,4.7575,4.7647,4.7702,4.7714,4.7793,4.7908,4.7976,4.8112,4.8222,4.8323,4.8364,4.8337,4.8336,4.8367,4.837,4.8358,4.8364,4.8005,4.8328,4.8326,4.8324,4.8322,4.8321,4.7429,4.7518,4.7585,4.769,4.7744,4.7812,4.7899,4.7931,4.8026,4.8135,4.8132,4.8258,4.8328,4.846,4.8508,4.8607,4.8568,4.8614,4.8625,4.8636,4.8646,4.8343,4.8626,4.8625,4.8625,4.8624,4.8624,0,4.7709,4.7749,4.7846,4.7947,4.8029,4.7993,4.8071,4.8143,4.8253,4.832,4.8407,4.8538,4.8644,4.8689,4.8793,4.8863,4.8853,4.8891,4.8885,4.8895,4.8675,4.8638,4.8897,4.8897,4.8897,4.8897,4.8897,4.8897,4.7865,4.8013,4.8024,4.8199,4.8239,4.8361,4.8408,4.847,4.8523,4.867,4.8757,4.8785,4.8843,4.8951,4.9046,4.9057,4.9096,4.9139,4.9144,4.8938,4.8911,4.8884,4.8848,4.9148,4.9148,4.9355,4.9357,4.9358]},{"header":{"parameterUnit":"m.s-1","parameterCategory":1,"la1":30.2991,"la2":30.254,"lo1":-89.0895,"lo2":-89.0444,"dy":0.0017,"dx":0.0017,"nx":28,"ny":28,"refTime":"2024-05-15T03:00:00:Z","depth":0,"parameterNumber":3,"parameterNumberName":"V-component_of_WINDS"},"data":[0,0,0,0,0,0,0,0,0,0,0,0,0,0,0,0,0,0,0,0,0,0,0,0,0,0,0,0,0,0,0,0,0,0,0,0,0,0,0,0,0,0,0,0,0,0,0,0,0,0,0,0,0,0,0,0,0,0,1.1877,1.1878,0,1.1922,1.1922,1.1923,1.1904,1.1902,1.1901,1.19,1.1947,1.1949,1.1952,0,0,0,0,0,0,0,0,0,0,0,0,0,1.1776,1.1778,1.1877,1.1878,1.1878,1.1922,1.1922,1.1923,1.1904,1.1902,1.1901,1.19,1.1946,1.1949,1.1952,0,0,0,0,0,0,0,0,0,0,0,0,0,1.182,1.1778,1.1877,1.1874,1.1874,1.1922,1.1922,1.1923,1.1904,1.1902,1.1901,1.1899,1.1946,1.1949,1.1952,1.2006,0,0,1.1963,1.1964,0,0,0,0,0,0,0,0,1.1818,1.1824,1.1874,1.1874,1.1874,1.1905,1.1904,1.1951,1.1904,1.1893,1.19,1.1898,1.1935,1.1939,1.1951,1.2008,1.201,1.1963,1.1965,1.1966,1.1967,0,0,0,0,0,0,0,1.1815,1.1822,1.1895,1.1875,1.1875,1.187,1.1875,1.1913,1.1922,1.1894,1.1892,1.1898,1.1935,1.1948,1.1952,1.2011,1.1963,1.1966,1.1968,1.1969,1.2114,1.2116,0,0,0,0,0,0,1.1811,1.1819,1.1893,1.1896,1.1841,1.1874,1.1879,1.1897,1.1922,1.1924,1.1899,1.1897,1.1943,1.1948,1.1953,1.2018,1.1966,1.197,1.1972,1.2112,1.2114,1.2116,0,0,0,0,0,0,1.1809,1.1818,1.1892,1.1857,1.1866,1.1877,1.1898,1.1899,1.1912,1.1926,1.1928,1.1911,1.1942,1.1949,1.1993,1.2019,1.1971,1.1974,1.211,1.2113,1.2115,1.2147,0,0,0,0,0,0,1.1806,1.1818,1.1838,1.1858,1.1868,1.193,1.19,1.1901,1.1918,1.1915,1.1937,1.194,1.1941,1.1988,1.1996,1.2023,1.1977,1.2108,1.2111,1.2115,1.2144,1.215,1.2156,0,0,0,0,0,1.1803,1.1846,1.1839,1.1848,1.1894,1.1932,1.1938,1.1938,1.192,1.1941,1.195,1.1939,1.2015,1.1993,1.2002,1.203,1.2106,1.211,1.2114,1.2141,1.2149,1.2156,0,0,0,0,0,0,1.1829,1.1848,1.1841,1.1892,1.191,1.1929,1.1955,1.1947,1.1972,1.1968,1.1968,1.1973,1.2018,1.2029,1.2004,1.2083,1.2058,1.2064,1.2075,1.2083,1.2089,1.2086,1.198,0,0,0,0,0,1.1841,1.1869,1.1885,1.1928,1.1937,1.1944,1.1961,1.1959,1.1979,1.1987,1.1999,1.2018,1.2046,1.2065,1.2092,1.2145,1.2149,1.2169,1.2175,1.218,1.2185,1.2214,1.2222,1.213,1.213,1.213,0,0,1.1865,1.1879,1.1897,1.1933,1.1947,1.1977,1.1951,1.1984,1.2006,1.1992,1.2034,1.2044,1.2065,1.2114,1.2136,1.2124,1.2212,1.2185,1.2189,1.2192,1.2219,1.2227,1.2235,1.2132,1.2132,1.2131,0,0,1.1924,1.1938,1.1975,1.199,1.2011,1.2015,1.2024,1.2044,1.2049,1.2092,1.2081,1.2108,1.2156,1.2172,1.2186,1.2251,1.2242,1.226,1.2293,1.232,1.2327,1.2334,1.2357,1.2365,1.2265,1.2265,1.2265,0,1.1952,1.1997,1.1995,1.2029,1.2045,1.2032,1.207,1.2084,1.2113,1.2125,1.2111,1.2171,1.2185,1.2236,1.2252,1.2264,1.2274,1.2257,1.2326,1.2333,1.2339,1.2361,1.2369,1.2267,1.2267,1.2266,1.2266,0,1.2029,1.206,1.2088,1.2116,1.2135,1.217,1.2174,1.2194,1.219,1.2196,1.2239,1.2255,1.2284,1.2297,1.2294,1.2348,1.234,1.2326,1.2301,1.235,1.237,1.2379,1.227,1.2269,1.2268,1.2268,0,0,1.2107,1.2133,1.2144,1.2156,1.2178,1.2202,1.2237,1.2265,1.2282,1.2302,1.2331,1.2372,1.2359,1.2376,1.2375,1.2399,1.2448,1.2382,1.2382,1.2394,1.2509,1.2519,1.2528,1.2442,1.2444,1.2445,1.2507,0,1.2169,1.2229,1.2228,1.2284,1.2313,1.2301,1.2331,1.2348,1.2354,1.2379,1.2386,1.2415,1.2396,1.2406,1.2429,1.2437,1.2471,1.2433,1.2469,1.2471,1.2464,1.2539,1.255,1.2608,1.2515,1.2516,1.2517,0,1.2248,1.227,1.2329,1.2347,1.2359,1.2386,1.2411,1.2435,1.2454,1.2457,1.2475,1.247,1.2505,1.2478,1.2526,1.25,1.2515,1.2521,1.2523,1.2527,1.2497,1.2545,1.2626,1.2635,1.253,1.2529,1.2528,0,1.2299,1.2344,1.2384,1.2395,1.2417,1.2436,1.2446,1.2463,1.248,1.2503,1.2513,1.254,1.2554,1.2575,1.2577,1.2557,1.2625,1.2599,1.2628,1.2628,1.2644,1.2643,1.2729,1.2653,1.2653,1.2653,1.2653,0,1.2367,1.2404,1.2407,1.2432,1.2473,1.2472,1.2511,1.252,1.2535,1.2561,1.2553,1.2578,1.2579,1.2605,1.2606,1.2646,1.2653,1.2656,1.2656,1.2657,1.2656,1.2666,1.2662,1.2655,1.2655,1.2654,1.2654,0,1.2431,1.2435,1.2478,1.2495,1.25,1.2529,1.2543,1.2567,1.2572,1.2606,1.2613,1.2622,1.2651,1.2655,1.269,1.2691,1.2738,1.2734,1.2732,1.2731,1.2761,1.2758,1.2856,1.2869,1.2785,1.2786,1.2787,0,1.2474,1.2502,1.2521,1.2538,1.2549,1.2576,1.2593,1.2593,1.2611,1.2634,1.2655,1.2684,1.2707,1.2754,1.2763,1.279,1.2786,1.2819,1.279,1.279,1.2787,1.2785,1.2787,1.2825,1.2825,1.2826,1.2827,0,1.2551,1.2551,1.2576,1.2601,1.2621,1.2641,1.266,1.2674,1.2676,1.2697,1.2727,1.2744,1.2779,1.2808,1.2834,1.2844,1.2836,1.2836,1.2844,1.2845,1.2842,1.2844,1.2747,1.2833,1.2833,1.2832,1.2832,1.2832,1.2606,1.2629,1.2646,1.2674,1.2688,1.2705,1.2728,1.2736,1.276,1.2789,1.2787,1.282,1.2838,1.2871,1.2884,1.2909,1.2899,1.2911,1.2914,1.2917,1.2919,1.2838,1.2914,1.2914,1.2914,1.2913,1.2913,0,1.2681,1.2692,1.2717,1.2743,1.2764,1.2754,1.2774,1.2793,1.2822,1.2839,1.2861,1.2895,1.2923,1.2933,1.296,1.2979,1.2976,1.2986,1.2984,1.2987,1.2928,1.2918,1.2988,1.2988,1.2988,1.2988,1.2988,1.2988,1.2723,1.2763,1.2765,1.2811,1.2821,1.2853,1.2865,1.2881,1.2895,1.2933,1.2955,1.2962,1.2977,1.3004,1.3029,1.3031,1.3041,1.3053,1.3054,1.2999,1.2991,1.2984,1.2975,1.3055,1.3055,1.3111,1.3111,1.3112]}]]